Temperature
28 28 28 28 27 27 27 27 27 27 27 27 25 24 23 22 22 22 22 22 21 21 21 20 20 20 20 20 20 20 19 19 20 19 19 19 19 19 18 18 18 17 17 17
27 28 27 27 27 27 27 27 27 27 27 25 23 22 21 21 21 21 21 20 20 20 20 20 20 20 20 20 20 20 20 19 19 19 19 19 19 18 18 18 18 17 17 17
26 27 26 26 27 27 27 27 27 27 26 23 23 21 20 20 19 19 19 19 19 19 19 19 20 20 19 19 19 19 19 19 19 19 19 19 18 18 18 18 17 17 17 16
26 25 24 27 27 27 27 27 26 25 24 23 21 18 17 17 18 17 17 17 17 18 18 18 18 18 19 18 18 18 18 18 18 17 17 17 17 17 17 17 17 17 17 16
26 25 26 26 26 26 26 26 25 24 23 21 19 19 18 16 16 16 16 16 16 17 17 17 17 17 18 17 17 17 17 17 17 17 16 16 16 16 16 16 16 16 16 16
25 24 24 26 25 24 25 25 24 23 22 21 21 23 19 15 15 14 14 15 15 15 16 16 16 16 17 16 16 16 16 16 16 16 16 15 15 15 15 15 15 15 14 14
24 24 26 25 24 24 24 24 23 22 21 21 21 20 16 15 14 14 14 14 15 15 15 15 15 16 16 16 15 15 14 14 14 14 14 14 14 14 14 14 14 13 13 13
24 24 24 24 24 24 23 22 22 21 21 20 17 16 15 14 14 14 14 14 14 14 14 14 14 14 14 14 13 13 13 13 13 13 13 13 13 13 12 12 12 12 12 12
24 24 22 22 23 21 21 21 21 20 19 17 16 15 15 14 14 13 13 13 13 14 13 13 13 13 13 12 12 12 12 12 12 12 12 11 11 11 11 11 11 11 11 11
23 24 22 21 21 20 20 20 19 18 17 17 16 15 14 14 13 13 13 13 13 13 12 12 12 12 12 11 11 11 11 11 11 10 11 10 10 10 10 10 10 10 10 10
23 23 22 21 19 19 18 18 18 17 17 16 16 15 14 13 13 13 12 12 12 12 12 11 11 11 11 11 11 11 10 10 10 10 10 10 10 10 9 9 9 9 9 8
22 21 21 20 18 18 17 17 17 16 16 15 15 14 14 13 13 12 12 12 11 11 11 11 11 10 10 10 10 10 10 10 10 10 10 10 10 10 9 9 8 8 8 8
18 18 18 18 17 17 17 16 16 15 15 14 14 14 13 13 12 12 12 11 11 11 11 10 10 10 10 10 9 9 9 9 9 9 9 9 9 9 9 9 8 8 7 7
16 16 17 17 16 16 16 15 15 14 14 14 13 13 13 12 12 12 12 11 11 11 10 10 10 10 10 9 9 9 9 9 9 9 9 8 8 8 8 8 8 7 7 6
15 16 16 15 15 15 15 14 14 14 13 13 13 12 12 12 12 11 11 11 11 11 10 10 10 10 9 9 9 8 8 8 8 8 8 8 8 7 7 7 7 6 6 6
15 15 15 15 14 14 14 14 14 13 13 12 12 12 12 11 11 11 11 10 10 11 10 10 9 9 9 8 8 8 8 8 7 7 7 7 7 6 6 6 6 5 5 5
15 14 14 14 14 14 13 13 13 12 12 12 12 11 11 11 11 11 11 10 10 10 9 9 9 8 8 8 8 8 8 7 7 7 6 6 5 5 5 5 4 4 4 4
14 14 13 13 13 13 12 12 12 12 11 11 11 11 11 11 11 10 10 10 10 9 9 8 8 8 7 7 7 7 6 6 6 5 5 5 4 4 4 4 4 3 3 3
13 13 12 12 12 12 12 12 11 11 11 11 11 11 10 10 10 10 10 10 9 9 8 8 8 7 7 6 6 5 5 5 5 4 4 4 3 3 3 3 3 3 2 2
12 11 11 11 11 11 11 11 11 11 11 10 10 10 10 10 10 10 9 9 9 8 8 7 7 6 6 5 5 5 4 4 4 3 3 3 3 3 2 2 2 2 2 2
11 11 11 11 11 11 10 10 10 10 10 10 10 10 10 9 9 9 9 9 8 8 7 6 6 5 5 5 4 4 3 3 3 2 2 2 2 2 2 1 1 1 1 1
11 11 11 11 10 10 10 10 10 10 10 10 10 10 9 9 9 8 8 7 7 7 6 5 5 5 5 4 3 3 3 2 2 2 1 1 1 1 1 1 1 1 1 1
10 10 10 10 10 10 10 10 10 9 9 9 9 9 9 8 8 8 7 6 6 6 5 4 4 4 4 3 2 2 2 1 1 1 1 1 0 0 0 1 1 1 1 1
10 10 10 10 10 10 10 10 9 9 9 8 8 8 8 8 7 7 6 6 5 4 4 4 3 3 2 2 1 1 1 1 1 1 0 0 0 0 0 0 0 0 0 0
9 9 9 9 9 10 9 9 9 8 8 8 8 7 7 7 6 6 5 5 4 4 3 2 2 2 1 1 1 1 0 0 -0 -0 -0 -0 -0 -0 -0 -0 -0 -0 -0 -0
9 9 9 8 8 8 9 9 9 8 8 8 7 7 6 6 5 5 4 3 3 2 2 1 1 1 1 1 0 0 -0 -0 -0 -0 -0 -0 -0 -0 -0 -0 -0 -0 -0 -0
8 9 8 8 8 8 8 8 8 8 7 7 6 5 5 5 4 4 3 3 2 2 1 1 1 1 0 0 -0 -0 -0 -0 -1 -1 -1 -1 -1 -1 -1 -1 -1 -0 -1 -0
Wind_Speed
10 6 6 8 9 10 12 12 11 9 7 3 3 3 2 2 3 4 6 7 8 9 9 9 10 10 11 12 12 12 13 14 14 13 12 12 12 13 13 13 14 14 14 14
10 9 9 10 10 11 12 12 12 11 8 3 4 4 4 4 4 4 4 5 5 5 6 6 7 7 8 9 9 9 10 11 10 10 10 11 11 11 12 12 13 13 14 15
10 7 8 12 11 11 10 9 9 9 2 6 5 6 6 5 6 6 5 5 4 3 3 2 2 3 3 4 4 5 6 5 6 6 7 8 8 9 10 11 12 13 14 15
8 7 12 4 1 4 7 7 5 3 3 6 9 10 9 8 8 8 8 8 7 7 7 6 5 6 6 5 5 4 3 2 2 2 3 4 5 7 8 8 9 11 12 14
9 11 11 4 3 3 5 5 3 4 8 11 13 13 11 10 10 10 10 9 9 10 11 10 10 10 10 10 8 7 6 5 4 2 1 1 2 4 5 6 8 9 10 12
9 10 9 2 4 2 4 5 5 7 12 13 12 6 7 8 10 11 11 11 12 13 13 13 12 11 13 12 10 9 8 7 6 5 4 2 1 2 2 4 6 8 9 10
11 10 6 5 5 4 5 1 7 8 11 11 6 6 12 11 11 11 11 12 13 13 13 12 11 12 13 12 11 9 8 8 7 6 5 4 4 3 3 4 5 6 7 7
7 9 3 7 4 2 3 4 6 9 9 9 13 16 15 13 12 11 11 11 12 12 12 11 11 11 12 11 9 8 8 8 8 8 7 6 5 5 5 5 5 6 6 7
3 0 5 3 1 3 2 4 6 9 11 15 16 16 15 14 12 11 11 10 10 11 12 10 9 9 10 8 7 7 8 8 7 7 6 6 6 5 5 5 6 7 7 8
2 1 1 1 1 1 2 5 7 11 14 16 17 17 15 13 12 11 10 9 9 10 10 8 7 8 8 6 6 7 7 6 5 5 6 6 6 6 7 7 7 8 9 10
4 2 1 1 1 3 6 9 12 13 14 15 17 16 15 12 11 10 9 8 7 7 7 7 6 6 6 6 6 6 6 6 6 6 6 6 6 6 7 7 7 9 10 11
3 2 2 2 3 7 10 13 15 16 16 15 15 15 14 11 10 8 8 7 6 6 6 5 5 5 5 5 5 5 5 6 7 7 7 8 8 8 4 7 7 10 12 12
2 3 3 5 7 10 12 14 15 16 16 16 14 13 12 10 8 7 7 6 5 4 4 3 3 4 4 4 4 5 6 7 7 8 9 9 10 10 11 9 8 11 12 13
2 4 6 8 11 13 15 16 17 16 15 14 13 11 10 8 7 5 5 4 3 2 2 2 2 3 4 3 4 5 7 6 7 8 9 10 10 11 11 12 13 12 9 8
5 5 9 12 14 15 16 17 17 15 14 12 10 9 8 6 5 3 2 2 1 1 2 2 2 3 4 4 5 7 8 7 8 9 10 10 10 11 11 12 12 12 13 12
10 13 15 16 16 16 16 16 15 13 11 9 8 6 5 4 3 2 1 1 1 3 3 3 2 3 4 5 7 7 6 4 7 10 10 10 10 11 11 12 12 12 12 13
13 14 15 15 15 14 13 12 11 10 8 6 4 3 2 1 0 0 1 1 2 2 2 2 3 4 5 6 8 8 9 8 7 9 9 10 11 11 11 11 12 12 13 13
13 14 14 14 13 13 12 11 9 7 5 4 2 1 1 2 2 2 2 2 1 1 3 3 4 5 5 6 7 8 9 9 9 9 9 9 11 11 11 11 12 13 13 13
16 16 15 14 12 11 9 8 6 5 3 1 1 2 3 3 3 3 3 3 3 2 3 4 4 5 6 7 8 7 8 9 9 9 9 9 10 10 11 11 12 12 13 13
15 14 13 11 9 7 6 4 3 2 0 1 2 3 3 3 3 3 3 2 4 5 4 5 4 5 6 7 9 8 8 9 10 10 10 10 11 11 11 11 12 12 12 12
12 10 9 8 6 4 3 2 2 2 2 3 3 4 4 3 2 2 3 2 5 4 3 1 3 6 7 8 9 8 8 9 9 9 10 10 11 11 11 11 12 12 12 12
6 5 4 3 2 2 1 2 2 3 4 4 4 4 3 2 2 1 2 3 4 4 3 4 5 7 9 10 7 8 8 9 9 9 9 9 10 10 11 11 11 12 12 12
3 3 3 2 3 3 3 3 3 3 4 4 4 3 3 3 3 2 2 4 4 3 4 6 7 7 12 7 7 7 8 9 9 9 9 9 9 10 10 11 11 11 12 12
2 3 3 3 3 4 4 4 4 4 3 3 2 2 2 1 2 4 5 6 5 4 4 6 5 8 9 5 7 7 8 8 9 9 9 9 9 9 10 10 11 11 12 14
2 3 3 4 5 4 4 5 5 4 4 2 2 2 2 3 3 4 4 5 4 2 4 4 2 7 6 7 7 7 7 8 9 9 9 9 9 10 10 10 11 11 11 12
3 4 4 4 4 5 5 5 5 4 4 2 1 2 3 4 5 4 4 4 5 4 4 4 4 4 6 6 7 7 8 8 8 8 9 9 10 10 10 11 13 12 11 12
4 4 4 4 4 4 5 5 5 4 3 2 2 3 3 4 4 4 4 3 3 4 4 4 5 6 6 7 7 7 7 7 8 8 9 9 9 10 11 12 11 11 12 12
Wind_Direction
253 256 246 246 240 228 238 260 274 284 285 308 48 46 60 102 148 157 164 174 185 191 194 200 205 210 214 218 218 217 218 220 222 223 221 220 217 216 214 214 217 219 221 224
239 236 240 248 247 242 245 256 262 271 276 69 82 80 77 84 106 125 137 149 161 175 185 195 205 214 218 220 218 213 218 224 226 223 219 218 219 218 216 218 223 224 226 229
241 225 241 249 246 244 243 247 257 267 272 122 110 86 72 74 85 86 87 93 107 118 123 140 170 186 198 206 199 193 203 217 217 216 217 218 220 221 223 224 226 230 234 236
244 230 249 269 93 258 255 252 252 249 137 130 117 102 79 71 81 82 78 76 72 76 80 82 90 100 101 103 111 121 125 135 157 200 215 217 225 231 235 235 235 236 240 242
242 243 254 223 182 215 241 245 213 182 149 138 134 121 86 70 76 79 78 75 73 72 77 75 76 83 87 83 83 85 82 77 73 80 106 197 235 250 250 250 249 249 248 250
234 251 257 236 126 158 237 227 148 161 160 160 171 165 113 97 88 83 81 80 79 77 75 73 71 78 83 81 75 70 65 62 59 58 54 40 3 319 293 274 268 267 264 263
234 244 252 102 130 183 238 71 137 162 165 172 171 103 120 117 103 95 90 87 84 80 73 68 69 73 76 73 67 64 65 65 61 53 48 37 23 6 337 313 300 290 288 281
231 242 230 118 159 238 38 100 150 159 159 140 118 116 122 120 113 106 99 92 88 85 80 72 69 72 72 66 63 63 61 57 52 43 31 32 24 7 350 329 307 296 294 291
234 327 80 126 92 60 79 139 150 151 140 136 132 130 128 123 117 111 104 98 93 92 86 77 70 71 73 64 60 61 59 52 44 37 29 20 7 353 337 327 317 315 311 306
248 209 110 158 220 163 160 152 143 140 140 139 135 134 132 128 123 117 109 104 99 94 90 83 73 69 70 64 59 58 51 42 31 20 11 9 346 340 335 330 327 323 317 312
246 279 272 100 91 134 132 134 133 135 137 137 134 133 131 128 124 119 112 103 98 94 91 85 75 66 61 53 44 40 34 20 8 4 1 343 336 331 323 326 329 313 313 311
301 19 336 67 116 139 138 136 135 134 132 132 132 131 129 125 124 121 115 110 103 94 86 76 68 61 54 43 32 17 9 2 353 347 345 333 328 322 290 278 266 254 258 275
335 11 60 105 123 131 131 131 131 130 129 127 125 124 122 122 123 120 115 109 98 87 76 64 56 51 43 30 18 7 352 347 339 336 332 327 324 320 318 306 268 253 253 254
84 112 111 114 118 122 123 122 121 119 119 119 120 121 122 121 118 115 108 99 89 72 48 40 36 39 24 8 354 341 329 336 327 325 323 320 319 316 314 315 316 314 301 283
75 104 118 119 118 118 120 120 119 117 117 117 119 119 117 115 114 106 92 83 70 26 25 19 20 24 4 344 336 328 325 330 332 323 317 317 318 316 315 315 313 314 316 315
101 108 115 118 118 120 121 120 118 117 116 117 117 118 124 130 129 116 96 335 330 1 13 2 4 4 350 338 328 318 317 325 316 315 316 321 321 318 317 317 316 317 317 319
113 115 115 115 115 115 113 111 110 109 108 105 102 102 107 107 160 193 306 346 355 7 14 13 4 354 344 340 330 324 324 325 314 312 323 324 323 322 321 320 319 319 318 323
103 106 108 110 112 109 103 100 98 95 90 83 83 68 346 313 315 335 336 333 338 15 39 26 8 341 338 346 335 325 324 324 328 329 327 328 328 323 322 320 320 320 320 321
98 98 98 97 97 98 98 97 98 100 100 93 339 326 313 304 306 316 325 315 316 342 33 21 349 329 345 355 336 317 326 328 329 329 327 328 321 324 325 325 325 323 322 322
92 90 89 89 87 90 96 100 104 103 75 292 295 300 303 312 319 326 333 344 28 29 26 4 343 351 349 354 332 329 335 334 333 331 331 331 329 329 329 329 327 325 325 325
91 89 87 84 77 67 56 39 12 344 322 309 305 304 311 324 333 335 323 5 66 34 15 345 0 3 356 340 314 337 343 341 337 336 336 334 333 333 333 332 330 329 328 327
82 80 75 71 60 38 16 339 331 326 325 321 317 319 321 321 336 14 45 40 60 14 347 16 27 21 347 322 342 351 349 348 345 344 342 340 337 335 334 334 332 331 330 329
62 45 29 8 353 341 327 320 325 326 325 326 326 330 334 347 344 339 41 58 45 8 12 42 31 357 322 332 3 1 359 356 351 347 344 341 338 338 336 334 333 333 333 333
27 16 1 344 327 310 310 321 325 321 316 310 325 356 337 333 37 54 70 87 55 11 48 64 21 337 316 6 11 6 2 359 354 349 346 343 342 342 340 339 337 336 336 335
338 327 327 321 303 306 307 298 294 292 294 317 4 47 28 35 52 71 77 84 81 22 60 85 53 329 357 20 14 6 4 4 355 347 349 349 347 345 345 344 343 341 340 339
317 308 321 313 316 309 307 309 310 317 318 322 15 48 62 72 82 85 85 83 78 61 43 41 34 9 21 20 16 10 5 3 359 357 356 351 350 350 350 348 345 345 341 342
288 288 280 284 295 314 319 318 316 320 328 348 39 61 72 77 81 83 84 80 75 63 53 44 33 26 24 20 18 14 11 8 4 360 356 355 353 351 350 348 349 348 347 347
Height
1471 1470 1472 1475 1476 1479 1482 1479 1481 1478 1476 1475 1481 1486 1488 1490 1490 1491 1493 1494 1497 1499 1502 1504 1506 1509 1511 1513 1516 1518 1520 1521 1523 1524 1526 1528 1529 1531 1532 1533 1534 1535 1535 1536
1475 1471 1473 1475 1473 1474 1476 1475 1476 1476 1476 1479 1485 1488 1489 1490 1491 1492 1493 1494 1495 1497 1499 1501 1503 1505 1507 1509 1511 1512 1514 1516 1518 1519 1521 1522 1524 1526 1527 1528 1529 1530 1530 1531
1476 1471 1476 1479 1469 1470 1470 1470 1473 1475 1475 1482 1486 1489 1491 1492 1492 1493 1493 1494 1495 1496 1497 1498 1500 1501 1503 1505 1506 1508 1509 1511 1513 1514 1515 1517 1519 1520 1521 1522 1523 1524 1525 1525
1473 1479 1490 1469 1465 1466 1468 1468 1470 1474 1479 1483 1488 1493 1494 1494 1494 1495 1495 1495 1496 1496 1496 1497 1498 1499 1499 1501 1503 1504 1505 1507 1508 1510 1511 1512 1513 1515 1515 1516 1517 1517 1518 1518
1473 1477 1474 1467 1466 1467 1470 1469 1471 1474 1480 1486 1489 1491 1496 1497 1497 1497 1497 1497 1497 1498 1497 1498 1498 1498 1498 1500 1502 1502 1503 1504 1506 1507 1508 1508 1509 1509 1510 1510 1510 1510 1510 1510
1473 1480 1482 1467 1466 1469 1470 1471 1472 1476 1480 1484 1486 1484 1496 1500 1499 1499 1499 1499 1499 1500 1499 1499 1499 1500 1499 1501 1502 1502 1502 1503 1504 1504 1504 1505 1505 1505 1505 1504 1504 1504 1504 1503
1470 1474 1465 1464 1468 1470 1475 1473 1474 1476 1480 1483 1485 1487 1496 1500 1501 1502 1502 1502 1501 1501 1502 1502 1502 1502 1501 1502 1502 1503 1503 1503 1503 1502 1502 1502 1501 1501 1501 1500 1499 1499 1498 1497
1469 1474 1471 1467 1468 1469 1472 1474 1475 1478 1481 1485 1488 1492 1497 1500 1502 1504 1505 1505 1504 1503 1503 1504 1504 1504 1504 1504 1504 1504 1504 1503 1502 1501 1501 1500 1499 1498 1497 1496 1496 1494 1493 1491
1462 1467 1468 1468 1470 1473 1474 1475 1477 1479 1482 1486 1490 1495 1499 1502 1504 1505 1506 1506 1506 1505 1505 1506 1507 1506 1506 1506 1505 1504 1503 1503 1502 1501 1500 1498 1497 1496 1495 1494 1493 1491 1489 1488
1464 1463 1467 1470 1472 1474 1475 1476 1478 1481 1484 1487 1491 1496 1500 1503 1505 1506 1507 1508 1508 1508 1508 1509 1509 1508 1507 1506 1505 1505 1504 1503 1502 1500 1499 1497 1496 1495 1493 1492 1490 1487 1485 1483
1464 1466 1468 1471 1472 1474 1475 1477 1480 1483 1487 1490 1494 1498 1502 1505 1507 1508 1509 1509 1510 1510 1510 1510 1509 1508 1508 1507 1506 1505 1504 1503 1501 1500 1498 1496 1494 1492 1490 1488 1485 1483 1480 1478
1464 1469 1469 1472 1473 1475 1477 1479 1482 1485 1489 1494 1497 1500 1504 1506 1508 1509 1510 1510 1511 1511 1511 1510 1510 1509 1508 1507 1506 1504 1503 1502 1500 1498 1496 1494 1492 1489 1486 1483 1479 1476 1473 1471
1471 1472 1472 1473 1475 1477 1479 1482 1485 1489 1492 1496 1500 1503 1506 1508 1509 1510 1510 1511 1511 1511 1511 1510 1509 1508 1507 1506 1505 1503 1502 1500 1498 1496 1494 1491 1488 1485 1481 1478 1475 1471 1468 1464
1472 1473 1474 1476 1478 1480 1483 1486 1489 1493 1496 1499 1502 1505 1507 1509 1510 1511 1511 1511 1511 1511 1510 1510 1509 1508 1506 1505 1503 1502 1500 1498 1496 1493 1491 1487 1484 1481 1477 1473 1470 1466 1463 1459
1474 1474 1476 1478 1481 1484 1487 1490 1493 1497 1500 1503 1505 1507 1508 1510 1510 1511 1511 1511 1510 1510 1509 1509 1508 1506 1505 1503 1501 1500 1498 1495 1492 1489 1487 1483 1480 1477 1473 1469 1465 1461 1457 1454
1476 1478 1480 1482 1485 1488 1491 1494 1497 1500 1503 1505 1507 1508 1509 1510 1510 1510 1510 1510 1510 1509 1508 1507 1506 1504 1502 1500 1498 1497 1494 1491 1488 1485 1482 1479 1476 1472 1469 1465 1461 1456 1453 1449
1480 1482 1485 1487 1490 1493 1496 1498 1500 1502 1504 1506 1508 1509 1509 1510 1510 1510 1510 1509 1508 1507 1506 1504 1503 1501 1500 1497 1495 1493 1491 1488 1484 1481 1478 1475 1471 1468 1464 1460 1456 1452 1448 1444
1485 1487 1489 1492 1494 1497 1499 1501 1503 1504 1506 1507 1508 1508 1509 1509 1509 1508 1508 1507 1506 1505 1503 1502 1500 1498 1496 1494 1491 1489 1487 1484 1481 1477 1474 1471 1467 1463 1460 1456 1452 1448 1443 1439
1490 1492 1494 1496 1499 1500 1502 1503 1505 1506 1506 1507 1508 1508 1508 1508 1507 1506 1505 1504 1503 1502 1501 1499 1497 1495 1493 1490 1487 1485 1483 1480 1477 1473 1470 1466 1463 1460 1456 1452 1448 1443 1439 1434
1495 1496 1498 1500 1502 1503 1504 1505 1506 1506 1506 1506 1506 1506 1506 1505 1504 1504 1503 1502 1501 1499 1497 1496 1494 1492 1490 1487 1483 1482 1479 1476 1473 1470 1467 1463 1459 1456 1452 1448 1444 1439 1435 1430
1498 1500 1501 1502 1503 1504 1505 1505 1505 1506 1505 1505 1505 1504 1503 1503 1502 1501 1500 1500 1498 1496 1494 1493 1491 1489 1486 1483 1481 1479 1476 1473 1470 1466 1463 1460 1456 1452 1449 1445 1440 1436 1432 1427
1501 1502 1503 1504 1504 1505 1505 1505 1504 1504 1504 1503 1502 1502 1501 1500 1500 1499 1498 1497 1495 1493 1492 1491 1488 1485 1482 1480 1478 1476 1473 1470 1467 1464 1461 1457 1454 1450 1446 1442 1438 1434 1429 1424
1502 1503 1503 1504 1504 1504 1504 1504 1503 1502 1502 1501 1500 1499 1499 1498 1497 1497 1496 1494 1493 1491 1489 1487 1484 1482 1479 1478 1476 1474 1471 1468 1465 1462 1459 1456 1452 1448 1444 1440 1436 1432 1427 1422
1503 1503 1503 1503 1503 1503 1502 1502 1501 1500 1499 1498 1498 1497 1496 1496 1495 1494 1493 1491 1489 1488 1487 1484 1482 1480 1478 1477 1475 1472 1470 1467 1464 1461 1458 1455 1451 1447 1443 1439 1435 1430 1426 1421
1502 1502 1502 1502 1501 1500 1500 1499 1499 1498 1497 1496 1495 1494 1494 1494 1493 1492 1490 1488 1487 1486 1485 1483 1480 1479 1478 1476 1474 1471 1469 1466 1463 1460 1457 1454 1450 1447 1443 1439 1434 1430 1425 1420
1501 1501 1500 1500 1499 1498 1498 1497 1496 1495 1495 1494 1493 1493 1492 1491 1490 1489 1488 1487 1486 1485 1484 1483 1481 1479 1478 1476 1474 1471 1469 1466 1463 1460 1457 1454 1450 1447 1443 1439 1434 1430 1425 1420
1499 1498 1498 1497 1496 1496 1495 1494 1493 1493 1492 1492 1491 1490 1490 1489 1488 1487 1487 1486 1486 1485 1484 1483 1481 1480 1478 1476 1474 1472 1469 1466 1464 1461 1458 1454 1451 1447 1443 1439 1435 1430 1426 1421